Location: Huntsville
(41.2590°N, 111.7678°W)
Time: 19:29:25
(UTC+00:00)

N. Korean satellite - Pass Details

Date: 11 December 2021
Orbit: 446 x 492 km, 97.3° (Epoch: 18 January)

Event Time Altitude Azimuth Distance (km) Brightness Sun altitude
Rises 01:00:48 0° 213° (SSW) 2,508 11.1 -11.5°
Reaches altitude 10° 01:04:12 10° 249° (WSW) 1,625 10.8 -12.1°
Maximum altitude 01:05:19 11° 268° (W) 1,546 10.3 -12.3°
Drops below altitude 10° 01:06:27 10° 287° (WNW) 1,620 10.0 -12.5°
Sets 01:09:50 0° 324° (NW) 2,489 10.4 -13.1°
